When you browse on this site, cookies collect data to enhance your experience and personalize the content and advertising you see.
Visit our Privacy Policy to learn more. By continuing to use the site, you agree to this use of cookies and data.
  • In Czech Republic
  • List of Countries
  • For 7 days
  • Water Temperature
  • Satellite Maps
  • Weather Map
  • Weather Widgets
  • user-avatar
    Login

    Hourly Weather Klichev

    Today, 16 July, Tuesday

    Time Temperature Precipitation Wind Pressure Humidity
    00:00 +13°C° 0 mm 1 mps 743 mmHg 91%
    01:00 +13°C° 0 mm 1 mps 743 mmHg 91%
    02:00 +12°C° 0 mm 1 mps 744 mmHg 91%
    03:00 +12°C° 0 mm 1 mps 743 mmHg 91%
    04:00 +12°C° 0 mm 1 mps 743 mmHg 91%
    05:00 +12°C° 0 mm 1 mps 743 mmHg 91%
    06:00 +14°C° 0 mm 1 mps 743 mmHg 85%
    07:00 +15°C° 0 mm 0 mps 743 mmHg 79%
    08:00 +18°C° 0 mm 0 mps 743 mmHg 73%
    09:00 +19°C° 0.5 mm 0 mps 743 mmHg 68%
    10:00 +22°C° 0.5 mm 1 mps 743 mmHg 62%
    11:00 +23°C° 0.5 mm 1 mps 742 mmHg 56%
    12:00 +23°C° 0.4 mm 1 mps 742 mmHg 58%
    13:00 +23°C° 0.4 mm 2 mps 742 mmHg 59%
    14:00 +23°C° 0.4 mm 2 mps 741 mmHg 60%
    15:00 +23°C° 0.6 mm 2 mps 741 mmHg 64%
    16:00 +23°C° 0.6 mm 2 mps 741 mmHg 68%
    17:00 +21°C° 0.6 mm 2 mps 741 mmHg 72%
    18:00 +20°C° 0.3 mm 2 mps 741 mmHg 76%
    19:00 +18°C° 0.3 mm 2 mps 741 mmHg 81%
    20:00 +17°C° 0.3 mm 2 mps 740 mmHg 86%
    21:00 +16°C° 0.2 mm 2 mps 740 mmHg 88%
    22:00 +15°C° 0.2 mm 2 mps 740 mmHg 91%
    23:00 +15°C° 0.2 mm 2 mps 740 mmHg 94%

    Tomorrow, 17 July, Wednesday

    Time Temperature Precipitation Wind Pressure Humidity
    00:00 +14°C° 0.1 mm 1 mps 740 mmHg 94%
    01:00 +14°C° 0.1 mm 1 mps 740 mmHg 94%
    02:00 +14°C° 0.1 mm 1 mps 740 mmHg 94%
    03:00 +14°C° 0.7 mm 1 mps 740 mmHg 95%
    04:00 +14°C° 0.7 mm 1 mps 740 mmHg 96%
    05:00 +14°C° 0.7 mm 1 mps 740 mmHg 97%
    06:00 +14°C° 0.3 mm 1 mps 740 mmHg 95%
    07:00 +15°C° 0.3 mm 2 mps 740 mmHg 92%
    08:00 +16°C° 0.3 mm 2 mps 740 mmHg 90%
    09:00 +16°C° 0.1 mm 3 mps 740 mmHg 86%
    10:00 +16°C° 0.1 mm 3 mps 739 mmHg 83%
    11:00 +15°C° 0.1 mm 4 mps 739 mmHg 79%
    12:00 +17°C° 0 mm 4 mps 739 mmHg 75%
    13:00 +18°C° 0 mm 3 mps 739 mmHg 71%
    14:00 +19°C° 0 mm 3 mps 739 mmHg 66%
    15:00 +19°C° 0.4 mm 3 mps 739 mmHg 69%
    16:00 +19°C° 0.4 mm 3 mps 739 mmHg 73%
    17:00 +19°C° 0.4 mm 2 mps 739 mmHg 76%
    18:00 +17°C° 0.7 mm 2 mps 739 mmHg 80%
    19:00 +16°C° 0.7 mm 2 mps 739 mmHg 84%
    20:00 +15°C° 0.7 mm 2 mps 739 mmHg 89%
    21:00 +14°C° 0.1 mm 2 mps 739 mmHg 90%
    22:00 +13°C° 0.1 mm 2 mps 739 mmHg 92%
    23:00 +12°C° 0.1 mm 2 mps 739 mmHg 94%

    Day after tomorrow, 18 July, Thursday

    Time Temperature Precipitation Wind Pressure Humidity
    00:00 +12°C° 0 mm 2 mps 739 mmHg 95%
    01:00 +12°C° 0 mm 2 mps 739 mmHg 95%
    02:00 +10°C° 0 mm 2 mps 739 mmHg 96%
    03:00 +10°C° 0 mm 2 mps 739 mmHg 97%
    04:00 +10°C° 0 mm 2 mps 739 mmHg 97%
    05:00 +10°C° 0 mm 2 mps 739 mmHg 98%
    06:00 +11°C° 0 mm 3 mps 739 mmHg 95%
    07:00 +13°C° 0 mm 3 mps 739 mmHg 92%
    08:00 +14°C° 0 mm 3 mps 739 mmHg 89%
    09:00 +16°C° 0.2 mm 3 mps 740 mmHg 86%
    10:00 +17°C° 0.2 mm 4 mps 740 mmHg 84%
    11:00 +17°C° 0.2 mm 4 mps 740 mmHg 82%
    12:00 +17°C° 1 mm 4 mps 740 mmHg 83%
    13:00 +17°C° 1 mm 4 mps 740 mmHg 85%
    14:00 +16°C° 1 mm 5 mps 740 mmHg 87%
    15:00 +17°C° 0.3 mm 4 mps 740 mmHg 88%
    16:00 +17°C° 0.3 mm 4 mps 740 mmHg 88%
    17:00 +17°C° 0.3 mm 4 mps 740 mmHg 89%
    18:00 +16°C° 0.3 mm 3 mps 741 mmHg 91%
    19:00 +16°C° 0.3 mm 3 mps 741 mmHg 93%
    20:00 +16°C° 0.3 mm 3 mps 741 mmHg 95%
    21:00 +14°C° 0 mm 3 mps 741 mmHg 95%
    22:00 +14°C° 0 mm 3 mps 741 mmHg 96%
    23:00 +13°C° 0 mm 3 mps 741 mmHg 97%

    19 July, Friday

    Time Temperature Precipitation Wind Pressure Humidity
    00:00 +13°C° 0 mm 3 mps 741 mmHg 97%
    01:00 +13°C° 0 mm 3 mps 742 mmHg 97%
    02:00 +12°C° 0 mm 3 mps 742 mmHg 97%
    03:00 +12°C° 0 mm 3 mps 742 mmHg 96%
    04:00 +12°C° 0 mm 3 mps 742 mmHg 96%
    05:00 +12°C° 0 mm 3 mps 742 mmHg 96%
    06:00 +13°C° 0 mm 4 mps 743 mmHg 91%
    07:00 +14°C° 0 mm 4 mps 743 mmHg 86%
    08:00 +16°C° 0 mm 5 mps 743 mmHg 82%
    09:00 +16°C° 0.1 mm 5 mps 744 mmHg 78%
    10:00 +17°C° 0.1 mm 5 mps 744 mmHg 75%
    11:00 +19°C° 0.1 mm 5 mps 744 mmHg 72%
    12:00 +20°C° 0.2 mm 5 mps 744 mmHg 69%
    13:00 +21°C° 0.2 mm 5 mps 744 mmHg 66%
    14:00 +22°C° 0.2 mm 5 mps 744 mmHg 62%
    15:00 +22°C° 0.1 mm 5 mps 744 mmHg 62%
    16:00 +22°C° 0.1 mm 4 mps 745 mmHg 63%
    17:00 +22°C° 0.1 mm 4 mps 745 mmHg 63%
    18:00 +20°C° 0 mm 3 mps 745 mmHg 69%
    19:00 +19°C° 0 mm 3 mps 745 mmHg 75%
    20:00 +17°C° 0 mm 2 mps 745 mmHg 82%
    21:00 +16°C° 0 mm 2 mps 746 mmHg 85%
    22:00 +15°C° 0 mm 2 mps 746 mmHg 88%
    23:00 +14°C° 0 mm 2 mps 746 mmHg 91%

    20 July, Saturday

    Time Temperature Precipitation Wind Pressure Humidity
    00:00 +14°C° 0 mm 2 mps 746 mmHg 92%
    01:00 +13°C° 0 mm 2 mps 746 mmHg 92%
    02:00 +13°C° 0 mm 2 mps 747 mmHg 93%
    03:00 +13°C° 0 mm 2 mps 747 mmHg 93%
    04:00 +13°C° 0 mm 2 mps 747 mmHg 93%
    05:00 +13°C° 0 mm 2 mps 747 mmHg 92%
    06:00 +15°C° 0 mm 2 mps 747 mmHg 86%
    07:00 +17°C° 0 mm 2 mps 748 mmHg 81%
    08:00 +19°C° 0 mm 3 mps 748 mmHg 75%
    09:00 +20°C° 0 mm 3 mps 748 mmHg 69%
    10:00 +21°C° 0 mm 3 mps 748 mmHg 63%
    11:00 +24°C° 0 mm 3 mps 748 mmHg 57%
    12:00 +24°C° 0 mm 3 mps 748 mmHg 54%
    13:00 +25°C° 0 mm 4 mps 748 mmHg 52%
    14:00 +25°C° 0 mm 4 mps 748 mmHg 50%
    15:00 +25°C° 0 mm 3 mps 748 mmHg 52%
    16:00 +25°C° 0 mm 3 mps 748 mmHg 54%
    17:00 +24°C° 0 mm 3 mps 748 mmHg 56%
    18:00 +22°C° 0 mm 3 mps 748 mmHg 63%
    19:00 +20°C° 0 mm 2 mps 748 mmHg 70%
    20:00 +19°C° 0 mm 1 mps 749 mmHg 77%
    21:00 +18°C° 0 mm 1 mps 749 mmHg 79%
    22:00 +16°C° 0 mm 1 mps 749 mmHg 81%
    23:00 +15°C° 0 mm 1 mps 749 mmHg 83%

    21 July, Sunday

    Time Temperature Precipitation Wind Pressure Humidity
    00:00 +15°C° 0 mm 1 mps 749 mmHg 84%
    01:00 +14°C° 0 mm 1 mps 749 mmHg 86%
    02:00 +14°C° 0 mm 1 mps 749 mmHg 87%
    03:00 +14°C° 0 mm 1 mps 749 mmHg 87%
    04:00 +14°C° 0 mm 1 mps 750 mmHg 86%
    05:00 +14°C° 0 mm 1 mps 750 mmHg 86%
    06:00 +16°C° 0 mm 1 mps 750 mmHg 80%
    07:00 +19°C° 0 mm 1 mps 750 mmHg 74%
    08:00 +21°C° 0 mm 1 mps 750 mmHg 67%
    09:00 +22°C° 0 mm 1 mps 750 mmHg 62%
    10:00 +24°C° 0 mm 2 mps 751 mmHg 58%
    11:00 +25°C° 0 mm 2 mps 751 mmHg 53%
    12:00 +25°C° 0 mm 2 mps 751 mmHg 51%
    13:00 +26°C° 0 mm 2 mps 751 mmHg 50%
    14:00 +26°C° 0 mm 3 mps 750 mmHg 48%
    15:00 +26°C° 0 mm 3 mps 750 mmHg 51%
    16:00 +26°C° 0 mm 3 mps 750 mmHg 54%
    17:00 +26°C° 0 mm 3 mps 750 mmHg 56%
    18:00 +24°C° 0 mm 2 mps 750 mmHg 63%
    19:00 +21°C° 0 mm 2 mps 750 mmHg 70%
    20:00 +20°C° 0 mm 1 mps 750 mmHg 77%
    21:00 +19°C° 0 mm 1 mps 751 mmHg 79%
    22:00 +18°C° 0 mm 1 mps 751 mmHg 81%
    23:00 +16°C° 0 mm 1 mps 751 mmHg 83%
    Show more